DW9996 Weather Reports


time (UTC)temp
C
wind
direction
speed
KPH
gust
KPH
rain 1hr
cm
rain 24hr
cm
rain mn
cm
humidity
%
barometer
mb
20260904173033 20 253 6.4 17.7 0.00 0.00 0.00 40 1004.6
20260904171541 20 254 8.0 17.7 0.00 0.00 0.00 38 1004.3
20260904170029 20 207 6.4 12.9 0.00 0.00 0.00 42 1004.2
20260904164528 20 289 4.8 12.9 0.00 0.00 0.00 43 1003.9
20260904163029 19 311 1.6 8.0 0.00 0.00 0.00 43 1003.6
20260904161532 18 275 0.0 4.8 0.00 0.00 0.00 46 1003.6
20260904160019 18 19 1.6 8.0 0.00 0.00 0.00 46 1003.2
20260904154515 17 41 4.8 9.7 0.00 0.00 0.00 48 1002.8
20260904153017 16 76 3.2 12.9 0.00 0.00 0.00 49 1002.9
20260904151508 16 37 6.4 14.5 0.00 0.00 0.00 50 1002.7
20260904150015 16 29 9.7 12.9 0.00 0.00 0.00 51 1002.7
20260904144501 15 65 1.6 11.3 0.00 0.00 0.00 55 1002.8
20260904143100 13 331 1.6 6.4 0.00 0.00 0.00 65 1003.0
20260904141600 12 321 3.2 6.4 0.00 0.00 0.00 67 1003.2
20260904140058 12 326 3.2 9.7 0.00 0.00 0.00 66 1003.3
20260904134601 12 302 0.0 3.2 0.00 0.00 0.00 66 1003.1
20260904133056 12 312 1.6 6.4 0.00 0.00 0.00 62 1002.9
20260904131621 12 325 3.2 4.8 0.00 0.00 0.00 60 1002.9
20260904130054 12 331 3.2 6.4 0.00 0.00 0.00 61 1002.7
20260904124553 12 340 1.6 4.8 0.00 0.00 0.00 61 1002.7
20260904123057 12 318 1.6 6.4 0.00 0.00 0.00 59 1002.8
20260904121553 12 33 4.8 8.0 0.00 0.00 0.00 61 1002.7
20260904120053 11 22 1.6 4.8 0.00 0.00 0.00 63 1002.8
20260904114552 11 339 1.6 4.8 0.00 0.00 0.00 63 1002.9
20260904113047 11 327 1.6 4.8 0.00 0.00 0.00 64 1003.0
20260904111546 11 328 0.0 4.8 0.00 0.00 0.00 63 1003.1
20260904110042 11 336 1.6 4.8 0.00 0.00 0.00 62 1003.4
20260904104540 12 351 3.2 8.0 0.00 0.00 0.00 59 1003.6
20260904103050 12 316 3.2 8.0 0.00 0.00 0.00 57 1003.7
20260904101539 13 9 3.2 8.0 0.00 0.00 0.00 56 1003.8
20260904100038 13 330 3.2 9.7 0.00 0.00 0.00 54 1003.8
20260904094539 13 343 4.8 9.7 0.00 0.00 0.00 55 1003.7
20260904093034 12 342 4.8 9.7 0.00 0.00 0.00 56 1003.8
20260904091534 12 5 6.4 11.3 0.00 0.00 0.00 57 1003.8
20260904090033 12 28 4.8 9.7 0.00 0.00 0.00 57 1004.1
20260904084529 11 360 3.2 8.0 0.00 0.00 0.00 58 1004.3
20260904083032 12 331 3.2 6.4 0.00 0.00 0.00 57 1004.7
20260904081523 12 348 4.8 8.0 0.00 0.00 0.00 56 1004.9
20260904080019 13 17 6.4 11.3 0.00 0.00 0.00 54 1005.2
20260904074534 13 360 3.2 8.0 0.00 0.00 0.00 54 1005.1
20260904073020 13 82 3.2 8.0 0.00 0.00 0.00 53 1005.3
20260904071513 14 49 3.2 11.3 0.00 0.00 0.00 51 1005.4
20260904070012 14 355 6.4 11.3 0.00 0.00 0.00 51 1005.3
20260904064516 15 360 4.8 11.3 0.00 0.00 0.00 51 1005.4
20260904063009 15 21 3.2 8.0 0.00 0.00 0.00 52 1005.5
20260904061506 14 19 3.2 6.4 0.00 0.00 0.00 53 1005.6
20260904060002 13 309 0.0 3.2 0.00 0.00 0.00 55 1005.7
20260904054503 13 302 0.0 3.2 0.00 0.00 0.00 55 1005.6
20260904053001 13 302 0.0 4.8 0.00 0.00 0.00 54 1005.6
20260904051616 14 306 1.6 4.8 0.00 0.00 0.00 52 1005.6
20260904044609 15 311 1.6 9.7 0.00 0.00 0.00 48 1005.8
20260904043101 16 344 3.2 11.3 0.00 0.00 0.00 46 1005.9
20260904041607 16 12 6.4 12.9 0.00 0.00 0.00 45 1005.9
20260904040109 16 17 6.4 12.9 0.00 0.00 0.00 44 1005.9
20260904034608 16 317 4.8 12.9 0.00 0.00 0.00 44 1005.9
20260904033102 16 336 4.8 9.7 0.00 0.00 0.00 45 1005.9
20260904031555 16 347 3.2 8.0 0.00 0.00 0.00 45 1005.8
20260904030055 17 350 6.4 12.9 0.00 0.00 0.00 44 1005.7
20260904024553 16 5 8.0 12.9 0.00 0.00 0.00 45 1005.5
20260904023053 17 350 6.4 11.3 0.00 0.00 0.00 44 1005.4
20260904021549 17 341 4.8 11.3 0.00 0.00 0.00 42 1005.3
20260904020051 18 323 3.2 11.3 0.00 0.00 0.00 40 1005.1
20260904014622 20 360 4.8 12.9 0.00 0.00 0.00 39 1005.0
20260904013049 21 338 3.2 6.4 0.00 0.00 0.00 37 1005.0
20260904011545 22 321 3.2 9.7 0.00 0.00 0.00 35 1004.8
20260904010050 23 309 3.2 12.9 0.00 0.00 0.00 34 1004.8
20260904004543 23 298 4.8 11.3 0.00 0.00 0.00 33 1004.8
20260904003046 23 314 3.2 12.9 0.00 0.00 0.00 33 1004.6
20260904001546 23 289 6.4 19.3 0.00 0.00 0.00 32 1004.4
20260904000040 24 282 6.4 17.7 0.00 0.00 0.00 31 1004.5
20260903234507 25 298 11.3 24.1 0.00 0.00 0.00 29 1004.3
20260903233005 25 267 14.5 25.7 0.00 0.00 0.00 26 1004.0
20260903231506 25 257 8.0 24.1 0.00 0.00 0.00 27 1004.0
20260903230010 24 240 8.0 24.1 0.00 0.00 0.00 28 1004.0
20260903224504 24 288 9.7 20.9 0.00 0.00 0.00 29 1003.9
20260903223003 26 279 8.0 30.6 0.00 0.00 0.00 26 1003.8
20260903221504 25 249 11.3 30.6 0.00 0.00 0.00 28 1003.6
20260903220003 26 291 9.7 32.2 0.00 0.00 0.00 26 1003.6
20260903214501 25 241 12.9 33.8 0.00 0.00 0.00 26 1003.6
20260903213001 25 237 16.1 37.0 0.00 0.00 0.00 27 1003.6
20260903211501 25 267 9.7 24.1 0.00 0.00 0.00 27 1003.5
20260903204558 24 247 9.7 22.5 0.00 0.00 0.00 29 1003.6
20260903203106 24 242 11.3 25.7 0.00 0.00 0.00 29 1003.7
20260903201556 25 225 22.5 33.8 0.00 0.00 0.00 28 1003.6
20260903200055 25 194 19.3 29.0 0.00 0.00 0.00 28 1003.7
20260903194556 24 234 16.1 29.0 0.00 0.00 0.00 29 1003.7
20260903193052 24 259 11.3 30.6 0.00 0.00 0.00 30 1003.8
20260903191551 23 208 11.3 32.2 0.00 0.00 0.00 30 1003.8
20260903190051 24 288 9.7 29.0 0.00 0.00 0.00 30 1003.7
20260903184549 23 215 19.3 33.8 0.00 0.00 0.00 30 1003.7
20260903183047 22 224 16.1 30.6 0.00 0.00 0.00 35 1003.7
20260903181542 22 252 9.7 20.9 0.00 0.00 0.00 39 1003.8
20260903180047 21 200 16.1 24.1 0.00 0.00 0.00 40 1004.0
20260903174537 20 229 11.3 20.9 0.00 0.00 0.00 44 1004.1